Location: Unspecified
(40.7945°N, 0.0000°E)
Time: 03:34:22
(UTC+00:00)

Altair - Pass Details

Date: 27 January 2021
Orbit: 1501 x 1682 km, 47.2° (Epoch: 01 March)

Event Time Altitude Azimuth Distance (km) Brightness Sun altitude
Rises 03:41:25 0° 223° (SW) 4,806 - -40.3°
Reaches altitude 10° 03:44:30 10° 221° (SW) 3,845 - -39.7°
Exits shadow 03:53:16 62° 168° (SSE) 1,834 7.7 -38.1°
Maximum altitude 03:54:13 64° 142° (SE) 1,806 7.7 -37.9°
Drops below altitude 10° 04:04:11 10° 64° (ENE) 3,947 10.3 -36.0°
Sets 04:07:24 0° 62° (ENE) 4,940 11.0 -35.4°
